Vertical_Velocity
-0 0 1 0 -0 0 -1 -0 1 -1 0 -0 0 1 -1 -1 -0 1 -1 -2 -1 -1 -1 -1 -1 -1 -1 -0 -1 -0 1 1 0 0 -1 -0 -0 -1 -0 0 1 -0 -0 -0 -1 -1 -1
0 -0 -0 0 0 1 0 1 -0 -1 0 0 1 1 -1 -1 -0 0 0 -2 -1 -1 -0 -1 -1 -1 -1 -1 -0 -0 0 1 1 0 0 -0 -1 -0 0 -0 1 1 1 -1 -1 -2 -2
0 1 -1 -0 1 1 0 1 1 -1 -1 -1 -0 1 0 -0 0 1 0 -0 -0 -1 -2 -1 -1 -2 -1 -1 -1 -1 -0 -0 0 1 0 -0 1 -0 -1 -0 -1 -0 1 1 1 -1 1
-0 0 1 -0 -1 0 -0 -0 0 0 -0 -1 0 -0 -0 -1 0 2 1 0 -0 -0 -1 -1 -1 -1 -1 -1 -1 -0 -1 -1 0 0 -0 0 0 1 1 1 0 -1 -1 -2 -2 2 1
-0 -1 0 1 -1 -1 0 0 1 -0 0 -1 0 0 -0 -2 -2 -0 -1 -1 -1 -0 -1 -1 -1 -1 0 -1 -0 -0 -1 -0 0 0 -1 -1 -0 1 1 -0 0 1 0 -2 0 0 -1
-1 1 -0 0 1 0 -0 0 1 1 -0 0 -1 -1 0 -0 -0 0 -0 -1 -2 -1 -1 -2 -1 -1 -0 -1 0 -0 -1 0 -0 0 -1 -1 -1 -1 0 0 -2 -0 -2 -2 0 -1 1
-1 -1 1 -0 0 1 1 0 -0 1 1 -0 -1 -1 -1 0 -0 0 1 -1 -1 -2 -1 -1 -1 -1 -1 -1 -0 0 -0 0 -0 -0 -1 -1 -1 -1 0 1 0 -1 -1 -2 0 -1 2
0 0 -1 0 1 -0 1 -0 -0 0 -1 1 -0 -1 -2 -2 1 1 -0 -1 -1 -1 -0 -0 -0 -0 0 -0 -1 -0 -0 -0 -1 -1 -1 -0 1 1 0 -0 1 1 -0 -0 -0 -1 -1
1 0 -0 -0 0 0 0 0 1 0 1 -0 -0 1 0 -1 -1 0 -1 -1 -2 -3 -3 0 -1 -1 -2 -2 -2 -2 -1 -1 -1 -1 -1 -1 -0 -0 -0 -0 -1 -0 -1 -0 0 1 1
0 -1 0 -1 -0 1 1 0 -1 0 1 0 1 1 0 -0 0 -1 -2 -1 -1 -3 -5 -2 0 -2 0 -1 -1 -1 -2 -1 -1 -2 -2 -1 -1 -1 -0 0 1 2 0 1 -0 -1 1
8 2 0 -2 0 1 -1 2 -0 -0 0 1 1 0 0 1 1 -1 -0 -1 -2 -2 -9 -3 -1 -2 -1 -1 -1 -0 -1 -2 -2 -1 -1 -1 -0 -1 -1 -2 -2 -2 -0 1 0 -2 -1
7 12 5 -2 0 -0 0 1 1 0 -0 0 2 0 -0 1 2 1 0 -2 -2 -2 -1 -1 -2 -1 -1 -1 0 -0 -2 -1 -1 -0 -1 -1 -1 -1 -1 -1 -2 -2 -2 -2 -0 -1 1
6 0 -2 -1 -1 1 1 -0 1 1 1 -0 1 0 -1 0 -0 -1 0 -3 -4 -4 -1 -1 -2 -1 -2 -1 -0 -1 -1 -1 -2 -3 -2 -2 -1 -1 -1 -1 0 -0 -0 -4 -1 0 -1
8 2 3 4 -0 1 1 0 -0 1 1 1 -0 1 2 0 0 -1 -1 -2 -4 -1 -0 -0 -1 -2 -3 -1 -1 -1 -2 -2 -2 -2 -2 -1 -3 -4 -2 0 0 -2 -2 -2 -6 -2 -3
6 7 5 -0 2 -0 1 -0 1 0 3 1 0 -1 1 1 1 0 -3 -4 1 4 1 -1 -3 -2 -0 -2 -5 -3 -2 -0 -0 -0 -2 -5 2 0 -1 -1 -1 2 -2 -3 -5 3 -2
11 8 10 3 -1 -0 0 2 3 4 -1 0 -1 -0 -2 1 1 -1 -5 -1 -6 -3 -3 -2 -2 -0 -1 -1 -2 -1 -1 1 -1 -1 -5 -3 -7 -4 -3 -2 -7 -3 -1 -6 -2 -8 -5
14 7 11 6 -0 -1 2 2 2 2 1 1 0 -4 5 0 -0 -5 -2 -6 -3 -1 -0 -2 -0 -3 -3 -0 -2 -0 -1 -4 -0 -1 -2 -2 -5 1 0 1 1 2 3 -0 1 1 -8
4 -0 13 10 9 11 10 4 5 2 0 -0 2 -10 6 1 -5 -2 4 6 3 1 0 -0 0 -1 -3 -3 -2 -4 -1 -3 -0 -1 -0 0 0 -3 -1 -1 -0 3 2 0 -1 -3 1
6 8 5 2 14 8 5 5 3 2 1 5 -2 -2 -1 0 -13 1 2 3 -3 -1 -0 3 -0 1 -3 -3 -5 -2 -2 -1 -1 -1 -0 1 3 -2 3 -5 -1 2 2 -2 -2 -0 13
-4 11 2 3 8 4 9 8 2 9 5 9 5 -9 1 -0 -2 -2 6 1 -4 1 -3 1 1 1 -1 -2 -2 -4 0 -3 0 -5 -1 2 6 -1 -2 1 -2 3 3 -0 -3 2 -8
-3 5 -6 -2 7 -1 -0 -0 5 5 12 17 9 -12 7 -7 4 2 4 1 2 1 0 -1 2 -0 -1 -3 -0 -1 1 4 3 -3 -0 -5 4 -2 1 -5 -4 4 0 1 -7 13 -23
1 0 -5 4 1 0 2 3 -0 7 14 9 -1 -7 5 7 3 -3 1 3 3 3 -1 1 4 -3 1 1 -4 4 1 -2 6 4 -2 2 0 -2 12 -4 -6 -5 7 -2 -4 8 -4
4 2 -4 -1 -1 5 2 -1 3 -5 17 18 -1 4 6 -1 4 -0 2 6 6 3 5 4 -1 3 2 1 -1 0 3 4 3 4 2 -1 -2 -6 2 2 -3 -4 7 4 -3 4 -7
0 -3 2 -1 2 2 -2 4 3 5 -5 10 7 14 12 -2 1 9 5 1 4 -0 8 2 1 3 0 2 -0 3 2 1 2 1 3 4 0 -7 -9 -0 -10 -2 -0 -3 -6 4 5
2 -1 -2 2 2 -3 0 1 3 -8 4 7 6 11 5 7 7 -1 2 6 -3 1 3 3 5 3 0 2 1 -5 5 -1 4 2 3 4 1 -11 -5 -7 -7 33 3 -6 -8 5 15
2 -2 -0 -2 0 -2 -1 -2 5 -0 5 2 5 4 5 11 0 9 2 4 2 5 2 2 -1 3 -0 1 -1 -0 -4 4 -3 4 7 4 1 1 2 -16 -22 16 -1 -2 -7 -4 -4
7 2 5 3 -1 -4 -2 -4 2 -3 1 21 10 9 5 1 8 3 5 9 2 4 7 1 -1 -4 -0 -1 -2 2 -1 0 -1 2 5 3 -0 3 -4 -12 -13 17 -9 -3 -3 -15 -6
3 1 -0 -0 -6 -4 -1 1 1 -1 5 5 22 10 -5 -4 3 7 9 4 3 1 2 3 -5 1 1 -1 -3 4 -5 6 -1 0 -2 1 -2 3 -5 -8 -16 2 -3 -6 -4 -6 -2
0 -2 0 1 5 1 -3 0 -1 -4 2 1 5 11 5 -1 13 13 5 4 -1 1 -4 -0 3 0 1 3 -2 -5 -4 3 3 -5 3 -12 6 -12 4 -3 -3 -11 -2 -7 -5 -2 -1
Height
5811 5812 5814 5815 5817 5818 5819 5820 5820 5821 5821 5821 5821 5821 5821 5821 5820 5819 5819 5819 5818 5817 5817 5816 5814 5813 5812 5811 5810 5808 5807 5806 5806 5805 5805 5804 5804 5804 5804 5805 5805 5805 5805 5806 5807 5809 5809
5807 5808 5810 5812 5813 5814 5816 5817 5818 5819 5819 5819 5819 5819 5819 5819 5819 5818 5818 5817 5817 5816 5816 5815 5814 5813 5812 5811 5809 5808 5806 5805 5804 5804 5803 5803 5803 5803 5803 5803 5804 5804 5804 5804 5804 5805 5806
5801 5804 5806 5807 5809 5811 5812 5813 5815 5815 5816 5817 5817 5817 5817 5817 5817 5817 5816 5816 5815 5814 5814 5813 5813 5812 5811 5810 5807 5806 5805 5804 5803 5802 5801 5801 5801 5801 5801 5802 5802 5802 5802 5802 5802 5802 5803
5796 5798 5801 5802 5804 5807 5808 5810 5811 5812 5813 5814 5814 5815 5815 5815 5815 5815 5814 5814 5814 5813 5812 5812 5811 5810 5809 5807 5805 5803 5802 5801 5801 5800 5800 5799 5798 5798 5798 5798 5798 5799 5800 5800 5799 5799 5800
5789 5792 5795 5797 5799 5802 5804 5805 5807 5808 5809 5810 5810 5812 5812 5813 5813 5813 5813 5812 5812 5811 5810 5810 5809 5807 5806 5805 5803 5801 5799 5798 5797 5797 5796 5796 5795 5795 5795 5795 5795 5795 5794 5795 5796 5796 5796
5782 5785 5788 5791 5794 5796 5798 5801 5802 5804 5805 5806 5807 5808 5809 5809 5809 5810 5810 5809 5809 5808 5808 5807 5806 5806 5804 5803 5801 5799 5797 5795 5794 5793 5792 5792 5792 5791 5791 5790 5791 5791 5790 5791 5790 5791 5790
5773 5777 5781 5784 5787 5790 5792 5795 5797 5799 5800 5801 5802 5803 5804 5805 5805 5806 5806 5806 5807 5806 5804 5804 5803 5802 5801 5800 5798 5797 5795 5793 5791 5790 5789 5788 5787 5787 5787 5786 5785 5785 5784 5784 5785 5785 5785
5763 5768 5772 5776 5779 5782 5786 5788 5790 5793 5795 5796 5797 5798 5799 5800 5801 5801 5802 5801 5801 5802 5801 5800 5799 5798 5797 5796 5795 5794 5792 5792 5789 5787 5785 5784 5783 5782 5781 5781 5780 5779 5778 5778 5778 5777 5779
5753 5758 5763 5768 5771 5774 5778 5781 5784 5786 5788 5790 5792 5793 5794 5795 5795 5796 5797 5797 5796 5796 5796 5796 5795 5794 5793 5792 5790 5789 5788 5786 5785 5783 5782 5780 5780 5778 5776 5775 5774 5773 5772 5771 5771 5769 5770
5741 5747 5752 5758 5762 5766 5769 5773 5776 5779 5781 5784 5785 5787 5789 5790 5792 5791 5791 5791 5791 5790 5790 5792 5790 5789 5788 5787 5786 5785 5783 5783 5781 5779 5777 5777 5775 5773 5771 5770 5769 5768 5766 5765 5764 5762 5762
5729 5735 5741 5746 5751 5756 5760 5764 5768 5771 5774 5776 5779 5780 5782 5784 5785 5785 5786 5785 5785 5785 5784 5785 5785 5783 5783 5783 5782 5780 5778 5777 5775 5774 5773 5772 5769 5768 5766 5764 5763 5762 5760 5759 5757 5755 5754
5718 5723 5729 5735 5740 5745 5750 5754 5758 5762 5766 5768 5771 5773 5775 5777 5778 5779 5779 5779 5780 5781 5778 5779 5779 5778 5777 5776 5776 5774 5774 5772 5770 5768 5766 5765 5763 5762 5760 5758 5756 5755 5753 5752 5750 5748 5747
5705 5710 5717 5723 5729 5734 5739 5744 5749 5753 5756 5760 5762 5765 5767 5769 5771 5772 5773 5774 5773 5773 5774 5774 5772 5771 5771 5771 5770 5768 5767 5766 5765 5763 5761 5759 5757 5755 5754 5752 5750 5748 5746 5743 5742 5741 5740
5694 5701 5706 5711 5717 5723 5729 5734 5739 5743 5747 5750 5753 5756 5758 5760 5762 5763 5765 5766 5766 5768 5768 5766 5765 5764 5764 5764 5763 5762 5760 5759 5757 5756 5754 5753 5751 5749 5747 5745 5742 5739 5738 5737 5733 5731 5730
5681 5688 5694 5700 5706 5712 5718 5723 5729 5734 5738 5741 5744 5746 5749 5751 5753 5755 5756 5756 5759 5761 5760 5759 5758 5757 5757 5756 5756 5754 5753 5751 5750 5749 5748 5744 5743 5742 5739 5737 5736 5733 5731 5730 5727 5725 5720
5667 5674 5682 5688 5695 5701 5707 5713 5718 5724 5728 5731 5734 5736 5739 5741 5743 5746 5746 5749 5751 5751 5751 5751 5751 5750 5749 5748 5747 5746 5744 5744 5742 5741 5739 5737 5734 5734 5732 5730 5728 5726 5725 5723 5721 5715 5712
5656 5660 5669 5677 5684 5690 5696 5701 5707 5713 5717 5720 5723 5726 5729 5732 5734 5735 5735 5739 5741 5740 5742 5741 5741 5741 5740 5740 5738 5737 5737 5737 5734 5733 5731 5729 5727 5728 5725 5723 5721 5718 5715 5713 5711 5708 5703
5642 5648 5654 5665 5673 5679 5684 5691 5696 5701 5706 5709 5712 5714 5719 5721 5723 5724 5727 5731 5730 5730 5731 5731 5732 5732 5732 5731 5731 5729 5729 5726 5725 5724 5722 5721 5719 5718 5717 5714 5712 5709 5707 5705 5702 5699 5697
5633 5636 5643 5650 5660 5666 5672 5679 5685 5690 5695 5699 5701 5704 5707 5711 5710 5713 5716 5720 5719 5720 5721 5722 5723 5723 5723 5723 5722 5721 5720 5719 5716 5715 5713 5713 5710 5709 5708 5706 5704 5700 5698 5696 5693 5690 5690
5623 5624 5632 5640 5646 5654 5660 5668 5674 5679 5685 5688 5689 5691 5695 5699 5701 5703 5705 5708 5708 5709 5711 5712 5713 5713 5714 5714 5712 5711 5712 5709 5707 5706 5705 5703 5702 5700 5699 5695 5693 5691 5690 5686 5683 5682 5677
5613 5617 5622 5629 5635 5642 5649 5656 5665 5669 5675 5675 5675 5679 5685 5688 5691 5694 5696 5697 5699 5700 5700 5700 5702 5704 5704 5703 5702 5702 5702 5699 5698 5697 5696 5695 5694 5692 5689 5687 5684 5679 5678 5675 5673 5672 5662
5601 5607 5613 5619 5628 5635 5642 5647 5653 5659 5662 5662 5664 5669 5674 5678 5681 5683 5685 5688 5690 5689 5690 5691 5693 5693 5693 5693 5693 5693 5692 5691 5689 5688 5686 5685 5684 5682 5680 5677 5673 5670 5670 5666 5664 5659 5652
5590 5596 5605 5612 5621 5628 5634 5641 5645 5647 5650 5648 5653 5660 5663 5667 5670 5672 5676 5679 5679 5679 5679 5681 5682 5683 5682 5683 5683 5683 5682 5682 5681 5680 5677 5675 5673 5671 5670 5667 5662 5661 5658 5654 5651 5645 5637
5580 5588 5596 5605 5612 5619 5625 5632 5636 5638 5638 5642 5647 5651 5652 5655 5660 5663 5666 5667 5668 5667 5670 5671 5672 5672 5674 5672 5673 5672 5672 5672 5671 5671 5668 5666 5663 5660 5658 5655 5652 5648 5643 5640 5635 5631 5621
5570 5579 5588 5597 5603 5610 5616 5621 5626 5628 5632 5634 5636 5639 5643 5645 5649 5651 5654 5656 5655 5657 5660 5662 5662 5663 5663 5663 5663 5664 5665 5663 5663 5661 5659 5656 5653 5649 5646 5643 5642 5639 5633 5627 5619 5619 5608
5559 5568 5578 5586 5592 5599 5606 5610 5617 5621 5624 5625 5625 5628 5632 5635 5638 5641 5643 5646 5647 5649 5650 5652 5652 5652 5654 5654 5654 5655 5655 5654 5654 5652 5649 5646 5643 5639 5636 5630 5627 5625 5617 5609 5602 5600 5593
5548 5558 5567 5576 5583 5590 5597 5602 5607 5611 5614 5615 5617 5618 5621 5625 5629 5631 5634 5636 5637 5639 5640 5640 5640 5642 5644 5645 5645 5647 5647 5645 5643 5642 5640 5636 5631 5628 5622 5615 5614 5610 5600 5593 5587 5583 5574
5537 5547 5556 5564 5572 5578 5585 5591 5596 5600 5605 5607 5608 5609 5612 5616 5620 5622 5623 5624 5625 5627 5629 5631 5632 5635 5637 5637 5638 5638 5637 5635 5634 5633 5629 5626 5620 5616 5609 5602 5597 5594 5586 5579 5572 5564 5556
5527 5537 5546 5555 5563 5568 5576 5582 5586 5590 5593 5596 5598 5600 5602 5606 5611 5611 5611 5614 5616 5618 5621 5624 5627 5627 5628 5628 5628 5628 5628 5626 5624 5622 5618 5613 5608 5603 5598 5590 5583 5576 5571 5564 5557 5549 5541